private Wetterstation Neerstedt/Brettorf www.u-wetter.de
Wetterdaten: aktuell Freitag, 25.09.2020 11:30
Datum Zeit Temp. A. B.Temp -5 B.Temp +5 Feuchte A. BlattFeu 1 Luftdruck Regen Wind Richtung Richtung Sonnenschein T Regen ET UV Solar Taupunkt Windchill Windben
25.09.2020 11:30 14,1 C 12,8 C 13,3 C 70 % 0 lf 997,0 hPa 0,0 l/m 0,2 km/h (0 Bft) S-SW 198 0 min 0 min 0,000 mm 1,8 UV-I 272 W/m 8,7 C 14,1 C 1,6 km/h (1 Bft)
25.09.2020 11:27 14,1 C 12,8 C 13,9 C 71 % 0 lf 997,0 hPa 0,0 l/m 0,2 km/h (0 Bft) S-SW 213 3 min 0 min 0,000 mm 2,1 UV-I 473 W/m 8,9 C 14,1 C 1,6 km/h (1 Bft)
25.09.2020 11:24 13,9 C 12,8 C 13,9 C 71 % 0 lf 996,9 hPa 0,0 l/m 0,5 km/h (0 Bft) S 169 3 min 0 min 0,000 mm 2,1 UV-I 517 W/m 8,7 C 13,9 C 4,8 km/h (1 Bft)
25.09.2020 11:21 13,8 C 12,8 C 13,9 C 71 % 0 lf 996,9 hPa 0,0 l/m 2,1 km/h (1 Bft) W-SW 244 3 min 0 min 0,000 mm 2,3 UV-I 561 W/m 8,6 C 13,8 C 8,0 km/h (2 Bft)
25.09.2020 11:18 13,6 C 12,8 C 13,3 C 71 % 0 lf 996,8 hPa 0,0 l/m 2,2 km/h (1 Bft) W-SW 237 3 min 0 min 0,000 mm 2,2 UV-I 546 W/m 8,4 C 13,6 C 8,0 km/h (2 Bft)
25.09.2020 11:15 13,5 C 12,8 C 13,3 C 71 % 0 lf 996,8 hPa 0,0 l/m 1,6 km/h (1 Bft) S-SW 213 3 min 0 min 0,000 mm 2,2 UV-I 545 W/m 8,3 C 13,5 C 6,4 km/h (2 Bft)
25.09.2020 11:12 13,3 C 12,8 C 13,3 C 72 % 0 lf 996,9 hPa 0,0 l/m 0,2 km/h (0 Bft) SW 225 3 min 0 min 0,000 mm 2,2 UV-I 548 W/m 8,4 C 13,3 C 3,2 km/h (1 Bft)
25.09.2020 11:09 13,2 C 12,8 C 12,8 C 71 % 0 lf 996,9 hPa 0,0 l/m 1,8 km/h (1 Bft) SW 215 3 min 0 min 0,000 mm 2,1 UV-I 517 W/m 8,1 C 13,2 C 8,0 km/h (2 Bft)
25.09.2020 11:06 13,1 C 12,8 C 12,8 C 72 % 0 lf 996,9 hPa 0,0 l/m 2,4 km/h (1 Bft) SW 220 3 min 0 min 0,000 mm 1,9 UV-I 416 W/m 8,2 C 13,1 C 8,0 km/h (2 Bft)
25.09.2020 11:03 13,0 C 12,8 C 12,8 C 73 % 0 lf 996,9 hPa 0,0 l/m 1,0 km/h (0 Bft) SW 230 3 min 0 min 0,000 mm 1,8 UV-I 350 W/m 8,3 C 13,0 C 8,0 km/h (2 Bft)
25.09.2020 11:00 12,9 C 12,8 C 12,8 C 73 % 0 lf 996,9 hPa 0,0 l/m 1,8 km/h (1 Bft) SW 235 3 min 0 min 0,203 mm 2,0 UV-I 519 W/m 8,2 C 12,9 C 8,0 km/h (2 Bft)
25.09.2020 10:57 12,9 C 12,8 C 12,8 C 74 % 0 lf 996,9 hPa 0,0 l/m 2,7 km/h (1 Bft) S-SW 193 3 min 0 min 0,000 mm 1,8 UV-I 354 W/m 8,4 C 12,9 C 8,0 km/h (2 Bft)
25.09.2020 10:54 12,9 C 12,8 C 12,8 C 75 % 0 lf 996,9 hPa 0,0 l/m 3,3 km/h (1 Bft) SW 223 3 min 0 min 0,000 mm 1,8 UV-I 439 W/m 8,6 C 12,9 C 8,0 km/h (2 Bft)
25.09.2020 10:51 12,9 C 12,8 C 12,8 C 76 % 0 lf 996,9 hPa 0,0 l/m 2,2 km/h (1 Bft) SW 226 3 min 0 min 0,000 mm 1,9 UV-I 476 W/m 8,8 C 12,9 C 9,7 km/h (2 Bft)
25.09.2020 10:48 12,9 C 12,8 C 12,8 C 77 % 0 lf 996,9 hPa 0,0 l/m 3,0 km/h (1 Bft) SW 217 3 min 0 min 0,000 mm 1,9 UV-I 471 W/m 9,0 C 12,9 C 9,7 km/h (2 Bft)
25.09.2020 10:45 12,8 C 12,8 C 12,8 C 79 % 0 lf 997,1 hPa 0,0 l/m 0,2 km/h (0 Bft) SW 226 3 min 0 min 0,000 mm 1,8 UV-I 468 W/m 9,2 C 12,8 C 3,2 km/h (1 Bft)
25.09.2020 10:42 12,7 C 12,8 C 12,2 C 79 % 0 lf 997,1 hPa 0,0 l/m 1,5 km/h (1 Bft) S 177 3 min 0 min 0,000 mm 1,7 UV-I 445 W/m 9,2 C 12,7 C 16,1 km/h (3 Bft)
25.09.2020 10:39 12,7 C 12,8 C 12,2 C 79 % 0 lf 997,1 hPa 0,0 l/m 0,7 km/h (0 Bft) SW 232 3 min 0 min 0,000 mm 1,6 UV-I 466 W/m 9,2 C 12,7 C 8,0 km/h (2 Bft)
25.09.2020 10:36 12,6 C 12,8 C 12,2 C 80 % 1 lf 997,0 hPa 0,0 l/m 1,1 km/h (1 Bft) SW 215 3 min 0 min 0,000 mm 1,7 UV-I 471 W/m 9,2 C 12,6 C 8,0 km/h (2 Bft)
25.09.2020 10:33 12,5 C 12,8 C 12,2 C 80 % 1 lf 997,0 hPa 0,0 l/m 1,0 km/h (0 Bft) S-SW 194 3 min 0 min 0,000 mm 1,6 UV-I 374 W/m 9,1 C 12,5 C 4,8 km/h (1 Bft)
25.09.2020 10:30 12,5 C 12,8 C 12,2 C 81 % 1 lf 997,0 hPa 0,0 l/m 1,8 km/h (1 Bft) S-SW 205 3 min 0 min 0,000 mm 1,4 UV-I 368 W/m 9,3 C 12,5 C 6,4 km/h (2 Bft)
25.09.2020 10:27 12,5 C 12,8 C 12,2 C 82 % 3 lf 996,9 hPa 0,0 l/m 2,4 km/h (1 Bft) SW 219 3 min 0 min 0,000 mm 1,4 UV-I 342 W/m 9,5 C 12,5 C 6,4 km/h (2 Bft)
25.09.2020 10:24 12,5 C 12,8 C 12,2 C 83 % 11 lf 996,9 hPa 0,0 l/m 2,1 km/h (1 Bft) SW 231 3 min 0 min 0,000 mm 1,5 UV-I 440 W/m 9,7 C 12,5 C 8,0 km/h (2 Bft)
25.09.2020 10:21 12,4 C 12,8 C 12,2 C 84 % 13 lf 996,9 hPa 0,0 l/m 1,5 km/h (1 Bft) SW 229 3 min 0 min 0,000 mm 1,4 UV-I 415 W/m 9,8 C 12,4 C 6,4 km/h (2 Bft)
25.09.2020 10:18 12,3 C 12,8 C 12,2 C 85 % 15 lf 996,8 hPa 0,0 l/m 1,3 km/h (1 Bft) S 190 3 min 0 min 0,000 mm 1,3 UV-I 362 W/m 9,9 C 12,3 C 6,4 km/h (2 Bft)
25.09.2020 10:15 12,3 C 12,8 C 12,2 C 85 % 15 lf 996,8 hPa 0,0 l/m 1,2 km/h (1 Bft) S-SW 198 3 min 0 min 0,000 mm 1,4 UV-I 416 W/m 9,9 C 12,3 C 6,4 km/h (2 Bft)
25.09.2020 10:12 12,2 C 12,8 C 12,2 C 86 % 15 lf 996,8 hPa 0,0 l/m 2,4 km/h (1 Bft) S 187 3 min 0 min 0,000 mm 1,3 UV-I 406 W/m 9,9 C 12,2 C 6,4 km/h (2 Bft)
25.09.2020 10:09 12,1 C 12,8 C 12,2 C 87 % 15 lf 996,8 hPa 0,0 l/m 1,8 km/h (1 Bft) SW 232 3 min 0 min 0,000 mm 1,3 UV-I 385 W/m 10,0 C 12,1 C 8,0 km/h (2 Bft)
25.09.2020 10:06 12,0 C 12,8 C 12,2 C 88 % 15 lf 996,8 hPa 0,0 l/m 0,9 km/h (0 Bft) SW 231 3 min 0 min 0,000 mm 1,3 UV-I 423 W/m 10,1 C 12,0 C 8,0 km/h (2 Bft)
25.09.2020 10:03 11,9 C 12,8 C 12,2 C 88 % 15 lf 996,7 hPa 0,0 l/m 1,4 km/h (1 Bft) W-SW 255 3 min 0 min 0,000 mm 1,2 UV-I 296 W/m 10,0 C 11,9 C 6,4 km/h (2 Bft)
25.09.2020 10:00 11,9 C 12,8 C 12,2 C 89 % 15 lf 996,7 hPa 0,0 l/m 0,7 km/h (0 Bft) W-SW 238 3 min 0 min 0,102 mm 1,1 UV-I 238 W/m 10,1 C 11,9 C 6,4 km/h (2 Bft)
_ Min-Zeit 07:54 00:03 06:39 15:45 12:00 04:39 - 16:57 - - - - - - - 23:57 07:54 17:30
Minimum _ 11,6 C 12,8 C 11,7 C 51 % 0 lf 995,2 hPa - 0,0 km/h (0 Bft) - - - - - - - 7,7 C 11,6 C 0,0 km/h (0 Bft)
_ Max-Zeit 16:03 12:06 15:18 08:27 05:18 12:09 05:57 15:30 - - 12:00 05:57 14:00 13:00 12:06 09:18 16:03 15:45
Maximum _ 18,4 C 14,4 C 17,8 C 93 % 15 lf 1003,8 hPa 0,2 l/m 5,2 km/h
SW (1 Bft)
- - 3 min 3 min 0,330 mm 3,4 UV-I 727 W/m 10,7 C 18,4 C 19,3 km/h
SW (3 Bft)
Durchschnitt _ 14,3 C 13,5 C 14,0 C 71 % 3 lf 999,6 hPa #0,8 l/m 0,7 km/h (0 Bft) SW - #3:39 h #12 min. #0,762 mm 1,3 UV-I 242 W/m 8,9 C 14,3 C 3,2 km/h (1 Bft)
www.u-wetter.de